Home   Weather   Kalgoorlie   Past weeks

Flag for Australia Past Weather in Kalgoorlie, Western Australia, Australia — Yesterday and Last 2 Weeks

Now
64 °F

Clear.


Feels Like: 64 °F
Forecast: 58 / 85 °F
Wind: 14 mph from South

Location: Kalgoorlie Boulder Amo

Current Time: Jan 20, 2017 at 1:19:28 am

Latest Report: Jan 20, 2017 at 12:30 am


Visibility: N/A

Pressure: 29.83 "Hg

Humidity: 64%

Dew Point: 52 °F

Location of KalgoorlieLocation

Past Weather in Kalgoorlie — Graph

°F

Kalgoorlie Temperature Yesterday

Maximum temperature yesterday: 93 °F (at 1:03 pm)
Minimum temperature yesterday: 64 °F (at 11:30 pm)
Average temperature yesterday: 79 °F

High & Low Weather Summary for the Past Weeks

 TemperatureHumidityPressure
High106 °F (Jan 5, 3:30 pm)94% (Jan 17, 4:30 am)30.09 "Hg (Jan 17, 4:30 am)
Low57 °F (Jan 17, 4:30 am)6% (Jan 5, 3:00 pm)29.53 "Hg (Jan 12, 1:00 pm)
Average79 °F36%29.81 "Hg
* Reported Jan 5 12:00 am — Jan 20 12:00 am, Kalgoorlie, Weather by CustomWeather, © 2017

Note: Actual official high and low records may vary slightly from our data, if they occured in-between our weather recording intervals... More about our weather records

Advertising

Kalgoorlie Weather History for the Previous 24 Hours

Scroll right to see more
 ConditionsComfort  
Time TempWeatherWind HumidityBarometerVisibility
12:00 am
Fri, Jan 20
64 °FClear.12 mph64%29.83 "HgN/A
11:30 pm
Thu, Jan 19
64 °FClear.16 mph64%29.83 "HgN/A
11:00 pm66 °FClear.16 mph60%29.83 "HgN/A
10:46 pm66 °FClear.17 mph60%29.83 "HgN/A
10:30 pm66 °FClear.18 mph60%29.83 "HgN/A
10:00 pm68 °FClear.18 mph53%29.83 "HgN/A
9:00 pm72 °FClear.21 mph44%29.80 "HgN/A
8:30 pm75 °FClear.16 mph39%29.80 "HgN/A
8:11 pm77 °FClear.20 mph32%29.77 "HgN/A
8:00 pm79 °FClear.20 mph28%29.77 "HgN/A
7:30 pm82 °FClear.13 mph15%29.74 "HgN/A
7:00 pm84 °FClear.13 mph14%29.71 "HgN/A
6:30 pm86 °FSunny.13 mph13%29.71 "HgN/A
6:00 pm88 °FSunny.13 mph12%29.68 "HgN/A
5:30 pm90 °FSunny.15 mph11%29.68 "HgN/A
5:00 pm90 °FSunny.13 mph14%29.68 "HgN/A
4:30 pm90 °FSunny.17 mph16%29.68 "HgN/A
4:00 pm91 °FSunny.15 mph18%29.68 "HgN/A
3:30 pm91 °FSunny.20 mph20%29.65 "HgN/A
3:06 pm93 °FSunny.17 mph23%29.65 "HgN/A
2:48 pm93 °FSunny.17 mph23%29.65 "HgN/A
2:30 pm93 °FSunny.15 mph23%29.65 "HgN/A
2:03 pm93 °FSunny.17 mph24%29.65 "HgN/A
1:30 pm91 °FSunny.15 mph26%29.68 "HgN/A
1:03 pm93 °FSunny.18 mph24%29.68 "HgN/A
12:30 pm91 °FScattered clouds.16 mph30%29.68 "HgN/A
12:00 pm91 °FPartly sunny.18 mph32%29.68 "HgN/A
11:30 am91 °FPartly sunny.15 mph32%29.68 "HgN/A
11:00 am90 °FPartly sunny.10 mph36%29.71 "HgN/A
10:30 am88 °FSunny.9 mph38%29.71 "HgN/A
10:00 am84 °FSunny.9 mph45%29.71 "HgN/A
9:30 am84 °FSunny.8 mph45%29.71 "HgN/A
9:00 am81 °FSunny.7 mph51%29.74 "HgN/A
8:30 am79 °FSunny.8 mph54%29.74 "HgN/A
8:00 am77 °FSunny.8 mph57%29.74 "HgN/A
7:30 am73 °FSunny.9 mph65%29.74 "HgN/A
7:00 am72 °FSunny.9 mph69%29.74 "HgN/A
6:30 am72 °FSunny.8 mph65%29.74 "HgN/A
6:00 am70 °FSunny.6 mph69%29.74 "HgN/A
5:30 am68 °FSunny.7 mph73%29.71 "HgN/A
5:00 am68 °FClear.8 mph73%29.71 "HgN/A
4:30 am70 °FClear.9 mph69%29.71 "HgN/A
4:00 am70 °FClear.7 mph69%29.71 "HgN/A
3:30 am70 °FClear.7 mph69%29.74 "HgN/A
3:00 am70 °FClear.7 mph69%29.74 "HgN/A
2:30 am70 °FClear.6 mph69%29.74 "HgN/A
2:00 am70 °FClear.7 mph69%29.74 "HgN/A
1:30 am70 °FClear.8 mph69%29.77 "HgN/A
1:00 am72 °FClear.9 mph65%29.77 "HgN/A
Weather by CustomWeather, © 2017

See weather overviewHow to use our weather pages